Погода в Болграде

Украина / Одесская область     45°40′53″N   28°36′53″E
темп.,
°C
ветер,
м/с
пор.,
м/с
влажн.,
%
обл.,
%
осадки,
мм/ч
давл.,
гПа
погр.,
м
29 июля, чт
чт2900:00+24ссв3666100 0.3 1014151
03:00+23ююз22685 0.3 101317
06:00+22зюз22705 0.0 101311
09:00+28з33480 0.0 1012363
12:00+33юз43330 0.0 1012799
15:00+37юз33265 0.0 10101681
18:00+35зюз8727100 0.0 10091726
21:00+23ссв116096 1.2 101118
30 июля, пт
пт3000:00+24ююз22585 0.1 101111
03:00+21ссз48700 0.1 1012176
06:00+20с39860 0.0 1013240
09:00+25с56650 0.0 1013590
12:00+30с45450 0.0 10131371
15:00+32ссз45350 0.0 10111922
18:00+31ссв44330 0.0 10101578
21:00+26ссв454775 0.0 101169
31 июля, сб
сб3100:00+24всв225440 0.0 101224
03:00+23в11570 0.0 101211
06:00+22всв12611 0.0 101212
09:00+28вюв34460 0.0 1012407
12:00+32ююв33330 0.0 10111554
15:00+34ююз33300 0.0 10101995
18:00+34юв43310 0.0 10092207
21:00+26ююв511579 0.4 1011309
1 августа, вс
вс100:00+23юв2278100 3.6 101230
03:00+22ююз2685100 3.8 1011133
06:00+22зюз11775 0.0 101111
09:00+26юз23596 0.0 1012417
12:00+31юз33430 0.0 10111170
15:00+34юз33350 0.0 10101464
18:00+34ю22330 0.0 10091315
21:00+27ююв58550 0.0 1010146
2 августа, пн
пн200:00+24ююв47595 0.0 1010125
03:00+23ююз22585 0.0 100918
06:00+22ююв34591 0.0 100948
09:00+28ю46431 0.0 1009361
12:00+34ю46310 0.0 10081124
15:00+36ююв89270 0.0 10061849
18:00+33ююв1012350 0.0 1005636
21:00+22всв6108066 1.4 1009173